sat.trackr.live / text

‹ back to catalog

CARBSAR

NORAD 67397 · 2026-004AL

PAYLOAD ACTIVE UNKNOWN

§ Identity

Operator
Country
UK
Launch date
2026-01-11
Launch site
AFWTR
Launch vehicle
Mass (kg)
RCS (m²)

External: N2YO · Heavens-Above · Gunter

§ Orbital elements

Epoch: 2026-05-24T23:52:44.442048Z

Period
94.78 min
Inclination
97.4541°
Eccentricity
0.0007442
Mean motion
15.19269181 rev/d
Perigee alt
502.9 km
Apogee alt
513.2 km
Semi-major
6,886.2 km
B*
2.7097e-4
RAAN
144.4581°
Arg perigee
67.3076°
Mean anomaly
292.8944°
Rev number
2,024

§ Raw data

CARBSAR1 67397U 26004AL  26144.99495882  .00005650  00000+0  27097-3 0  99982 67397  97.4541 144.4581 0007442  67.3076 292.8944 15.19269181 20246

JSON: /api/v1/satellites/67397 · /tle

For live sub-satellite position, see the globe view (requires WebGL).

§ Visibility from observer

Set your observer location to see the next 7 days of passes ≥ 10°. The values pass through the URL so the page stays shareable.

No JS? Fill the form by hand. The geolocation button needs JavaScript.